Location: Karcze
(52.0945°N, 22.4786°E)
Time: 01:15:21
(UTC+00:00)

Cosmos 614 Rocket - Pass Details

Date: 14 July 2020
Orbit: 732 x 764 km, 74.1° (Epoch: 06 August)

Event Time Altitude Azimuth Distance (km) Brightness Sun altitude
Exits shadow 00:43:21 15° 220° (SW) 1,929 5.4 -11.2°
Maximum altitude 00:47:33 61° 299° (WNW) 843 4.2 -10.9°
Drops below altitude 10° 00:52:39 10° 20° (NNE) 2,277 7.9 -10.5°
Sets 00:55:05 0° 24° (NNE) 3,211 9.3 -10.3°
